Weather Roundup
Issued by NWS Chicago, IL

Home | Current Version | Previous Version | Text Only | Print | Product List | Glossary Off
Versions: 1 2 3 4 5 6 7 8 9 10 11 12 13 14 15 16 17 18 19 20 21 22 23 24 25 26 27 28 29 30 31 32 33 34 35 36 37 38 39 40 41 42 43 44 45 46 47 48 49 50

000
NZUS59 KLOT 280703
HRRLOT

CHICAGO AREA WEATHER ROUNDUP
NATIONAL WEATHER SERVICE CHICAGO/ROMEOVILLE IL
100 AM CST TUE FEB 28 2017

NOTE: "FAIR" INDICATES FEW OR NO CLOUDS BELOW 12,000 FEET WITH NO
SIGNIFICANT WEATHER AND/OR OBSTRUCTIONS TO VISIBILITY.

* THESE STATIONS ARE NOT UNDER NWS QUALITY CONTROL. THEY ALSO MAY NOT
  REPORT WEATHER SUCH AS PRECIPITATION OR FOG.

ILZ005-006-012>014-019>023-280800-
NORTHEAST ILLINOIS

CITY           SKY/WX    TMP DP  RH WIND       PRES   REMARKS
OHARE          CLOUDY    48  41  76 E7        29.98F
MIDWAY         DRIZZLE   48  40  73 SE10      29.98F
AURORA         CLOUDY    47  42  83 SE9       29.95F
LANSING*       LGT RAIN  46  44  93 SE10G17   29.99F
JOLIET*        CLOUDY    47  44  89 SE9       29.97S
WAUKEGAN       CLOUDY    40  37  89 SE7       29.98F
DUPAGE AIRPORT CLOUDY    47  40  76 SE9       29.95F
WHEELING       LGT RAIN  47  40  76 E7        29.98F
KANKAKEE*      CLOUDY    45  42  90 SE13      30.00S
MORRIS*        LGT RAIN  47  43  87 SE10      29.95S
LEWIS AIRPORT* CLOUDY    46  44  95 S12       29.98R
NORTHERLY ISL    N/A     41  37  86 E5          N/A
$$

WIZ051-052-058>065-066-070>072-280800-
SOUTHEAST WISCONSIN

CITY           SKY/WX    TMP DP  RH WIND       PRES   REMARKS
MILWAUKEE      CLOUDY    43  36  76 SE10      30.00F
KENOSHA*       CLOUDY    44  37  76 SE10      29.99F
RACINE*        CLOUDY    41  35  79 S9        30.02F
WAUKESHA       CLOUDY    41  34  75 SE7       29.98F
WEST BEND      CLOUDY    39  36  87 SE5       29.98F
$$

INZ001>003-010>013-019-020-280800-
NORTHWEST INDIANA

CITY           SKY/WX    TMP DP  RH WIND       PRES   REMARKS
GARY*          LGT RAIN  47  42  80 SE9G16    30.00F
MICHIGAN CITY* NOT AVBL
RENSSELAER*    NOT AVBL
VALPARAISO     LGT RAIN  46  42  86 SE9       30.03F
$$

LMZ740>746-280800-
SOUTHERN LAKE MICHIGAN

STATION/POSITION TIME  SKY/WX   TEMP WIND        PRES    VSBY
                                AIR  DIR/SP/G
                 (UTC)          (F)  (DEG/KT/KT) (MB)    (MI)
HARRISON CRIB    0630            41  110/  8/  8   N/A
BURNHAM HARBOR   0700            41   CALM  /  9   N/A
CALUMET HARBOR   0630            46  150/  9/ 14 1015.3F
BURNS HARBOR     0640            47  170/ 13/ 18 1017.3F
MICHIGAN CITY    0630            45  120/ 13/ 16   N/A
$$

ABBREVIATIONS USED IN REMARKS
   TC - TEMPERATURE IN CELSIUS
  WCI - WIND CHILL INDEX
   HX - HEAT INDEX
  VSB - VISIBILITY
$$




USA.gov is the U.S. government's official web portal to all federal, state and local government web resources and services.